QPF
0.00 0.00 0.00 0.00 0.00 0.00 0.00 0.00 0.00 0.00 0.00 0.00 0.00 0.00 0.00 0.00 0.00 0.00 0.00 0.00 0.00 0.00 0.00 0.00 0.00 0.00 0.00 0.00 0.00 0.00 0.00 0.00 0.00 0.00 0.00 0.00 0.00 0.00 0.00 0.00 0.00 0.00 0.00 0.00
0.00 0.00 0.00 0.00 0.00 0.00 0.00 0.00 0.00 0.00 0.00 0.00 0.00 0.00 0.00 0.00 0.00 0.00 0.00 0.00 0.00 0.00 0.00 0.00 0.00 0.00 0.00 0.00 0.00 0.00 0.00 0.00 0.00 0.00 0.00 0.00 0.00 0.00 0.00 0.00 0.01 0.00 0.00 0.00
0.00 0.00 0.00 0.00 0.00 0.00 0.00 0.00 0.00 0.00 0.00 0.00 0.00 0.00 0.00 0.00 0.00 0.00 0.00 0.00 0.00 0.00 0.00 0.00 0.00 0.00 0.00 0.00 0.00 0.00 0.00 0.00 0.00 0.00 0.00 0.00 0.00 0.01 0.01 0.01 0.00 0.01 0.01 0.00
0.00 0.00 0.00 0.00 0.00 0.00 0.00 0.00 0.00 0.00 0.00 0.00 0.00 0.00 0.00 0.00 0.00 0.00 0.00 0.00 0.00 0.00 0.00 0.00 0.00 0.00 0.00 0.00 0.00 0.00 0.00 0.00 0.00 0.00 0.00 0.00 0.01 0.01 0.02 0.01 0.01 0.01 0.01 0.00
0.00 0.00 0.00 0.00 0.00 0.00 0.00 0.00 0.00 0.00 0.00 0.00 0.00 0.00 0.00 0.00 0.00 0.00 0.00 0.00 0.00 0.00 0.00 0.00 0.00 0.00 0.00 0.00 0.00 0.00 0.00 0.00 0.00 0.00 0.00 0.00 0.01 0.01 0.01 0.01 0.01 0.01 0.00 0.01
0.00 0.00 0.00 0.00 0.00 0.00 0.00 0.00 0.00 0.00 0.00 0.00 0.00 0.00 0.00 0.00 0.00 0.00 0.00 0.00 0.00 0.00 0.00 0.00 0.00 0.00 0.00 0.00 0.00 0.00 0.00 0.00 0.00 0.00 0.00 0.00 0.00 0.00 0.00 0.01 0.01 0.01 0.00 0.01
0.00 0.00 0.00 0.00 0.00 0.00 0.00 0.00 0.00 0.00 0.00 0.00 0.00 0.00 0.00 0.00 0.00 0.00 0.00 0.00 0.00 0.00 0.00 0.00 0.00 0.00 0.00 0.00 0.00 0.00 0.00 0.00 0.00 0.00 0.00 0.00 0.00 0.00 0.02 0.02 0.02 0.02 0.02 0.01
0.00 0.00 0.00 0.00 0.00 0.00 0.00 0.00 0.00 0.00 0.00 0.00 0.00 0.00 0.00 0.00 0.00 0.00 0.00 0.00 0.00 0.00 0.00 0.00 0.00 0.00 0.00 0.00 0.00 0.00 0.00 0.00 0.00 0.00 0.00 0.00 0.00 0.00 0.01 0.01 0.03 0.03 0.02 0.01
0.00 0.00 0.00 0.00 0.00 0.00 0.00 0.00 0.00 0.00 0.00 0.00 0.00 0.00 0.00 0.00 0.00 0.00 0.00 0.00 0.00 0.00 0.00 0.00 0.00 0.00 0.00 0.00 0.00 0.00 0.00 0.00 0.00 0.00 0.00 0.00 0.00 0.00 0.01 0.01 0.02 0.02 0.02 0.01
0.00 0.00 0.00 0.00 0.00 0.00 0.00 0.00 0.00 0.00 0.00 0.00 0.00 0.00 0.00 0.00 0.00 0.00 0.00 0.00 0.00 0.00 0.00 0.00 0.00 0.00 0.00 0.00 0.00 0.00 0.00 0.00 0.00 0.00 0.00 0.00 0.00 0.00 0.00 0.01 0.01 0.02 0.02 0.02
0.00 0.00 0.00 0.00 0.00 0.00 0.00 0.00 0.00 0.00 0.00 0.00 0.00 0.00 0.00 0.00 0.00 0.00 0.00 0.00 0.00 0.00 0.00 0.00 0.00 0.00 0.00 0.00 0.00 0.00 0.00 0.00 0.00 0.00 0.00 0.00 0.00 0.00 0.00 0.01 0.00 0.01 0.01 0.02
0.00 0.00 0.00 0.00 0.00 0.00 0.00 0.00 0.00 0.00 0.00 0.00 0.00 0.00 0.00 0.00 0.00 0.00 0.00 0.00 0.00 0.00 0.00 0.00 0.00 0.00 0.00 0.00 0.00 0.00 0.00 0.00 0.00 0.00 0.00 0.00 0.00 0.00 0.00 0.00 0.00 0.00 0.00 0.01
0.00 0.00 0.00 0.00 0.00 0.00 0.00 0.00 0.00 0.00 0.00 0.00 0.00 0.00 0.00 0.00 0.00 0.00 0.00 0.00 0.00 0.00 0.00 0.00 0.00 0.00 0.00 0.00 0.00 0.00 0.00 0.00 0.00 0.00 0.00 0.00 0.00 0.00 0.00 0.00 0.00 0.00 0.00 0.00
0.00 0.00 0.00 0.00 0.00 0.00 0.00 0.00 0.00 0.00 0.00 0.00 0.00 0.00 0.00 0.00 0.00 0.00 0.00 0.00 0.00 0.00 0.00 0.00 0.00 0.00 0.00 0.00 0.00 0.00 0.00 0.00 0.00 0.00 0.00 0.00 0.00 0.00 0.00 0.00 0.00 0.00 0.00 0.00
0.00 0.00 0.00 0.00 0.00 0.00 0.00 0.00 0.00 0.00 0.00 0.00 0.00 0.00 0.00 0.00 0.00 0.00 0.00 0.00 0.00 0.00 0.00 0.00 0.00 0.00 0.00 0.00 0.00 0.00 0.00 0.00 0.00 0.00 0.00 0.00 0.00 0.00 0.00 0.00 0.00 0.00 0.00 0.00
0.00 0.00 0.00 0.00 0.00 0.00 0.00 0.00 0.00 0.00 0.00 0.00 0.00 0.00 0.00 0.00 0.00 0.00 0.00 0.00 0.00 0.00 0.00 0.00 0.00 0.00 0.00 0.00 0.00 0.00 0.00 0.00 0.00 0.00 0.00 0.00 0.00 0.00 0.00 0.00 0.00 0.00 0.00 0.00
0.00 0.00 0.00 0.00 0.00 0.00 0.00 0.00 0.00 0.00 0.00 0.00 0.00 0.00 0.00 0.00 0.00 0.00 0.00 0.00 0.00 0.00 0.00 0.00 0.00 0.00 0.00 0.00 0.00 0.00 0.00 0.00 0.00 0.00 0.00 0.00 0.00 0.00 0.00 0.00 0.00 0.00 0.00 0.00
0.00 0.00 0.00 0.00 0.00 0.00 0.00 0.00 0.00 0.00 0.00 0.00 0.00 0.00 0.00 0.00 0.00 0.00 0.00 0.00 0.00 0.00 0.00 0.00 0.00 0.00 0.00 0.00 0.00 0.00 0.00 0.00 0.00 0.00 0.00 0.00 0.00 0.00 0.00 0.00 0.00 0.00 0.00 0.00
0.00 0.00 0.00 0.00 0.00 0.00 0.00 0.00 0.00 0.00 0.00 0.00 0.00 0.00 0.00 0.00 0.00 0.00 0.00 0.00 0.00 0.00 0.00 0.00 0.00 0.00 0.00 0.00 0.00 0.00 0.00 0.00 0.00 0.00 0.00 0.00 0.00 0.00 0.00 0.00 0.00 0.00 0.00 0.00
0.00 0.00 0.00 0.00 0.00 0.00 0.00 0.00 0.00 0.00 0.00 0.00 0.00 0.00 0.00 0.00 0.00 0.00 0.00 0.00 0.00 0.00 0.00 0.00 0.00 0.00 0.00 0.00 0.00 0.00 0.00 0.00 0.00 0.00 0.00 0.00 0.00 0.00 0.00 0.00 0.00 0.00 0.00 0.00
0.00 0.00 0.00 0.00 0.00 0.00 0.00 0.00 0.00 0.00 0.00 0.00 0.00 0.00 0.00 0.00 0.00 0.00 0.00 0.00 0.00 0.00 0.00 0.00 0.00 0.00 0.00 0.00 0.00 0.00 0.00 0.00 0.00 0.00 0.00 0.00 0.00 0.00 0.00 0.00 0.00 0.00 0.00 0.00
0.00 0.00 0.00 0.00 0.00 0.00 0.00 0.00 0.00 0.00 0.00 0.00 0.00 0.00 0.00 0.00 0.00 0.00 0.00 0.00 0.00 0.00 0.00 0.00 0.00 0.00 0.00 0.00 0.00 0.00 0.00 0.00 0.00 0.00 0.00 0.00 0.00 0.00 0.00 0.00 0.00 0.00 0.00 0.00
0.00 0.00 0.00 0.00 0.00 0.00 0.00 0.00 0.00 0.00 0.00 0.00 0.00 0.00 0.00 0.00 0.00 0.00 0.00 0.00 0.00 0.00 0.00 0.00 0.00 0.00 0.00 0.00 0.00 0.00 0.00 0.00 0.00 0.00 0.00 0.00 0.00 0.00 0.00 0.00 0.00 0.00 0.00 0.00
0.00 0.00 0.00 0.00 0.00 0.00 0.00 0.00 0.00 0.00 0.00 0.00 0.00 0.00 0.00 0.00 0.00 0.00 0.00 0.00 0.00 0.00 0.00 0.00 0.00 0.00 0.00 0.00 0.00 0.00 0.00 0.00 0.00 0.00 0.00 0.00 0.00 0.00 0.00 0.00 0.00 0.00 0.00 0.00
0.00 0.00 0.00 0.00 0.00 0.00 0.00 0.00 0.00 0.00 0.00 0.00 0.00 0.00 0.00 0.00 0.00 0.00 0.00 0.00 0.00 0.00 0.00 0.00 0.00 0.00 0.00 0.00 0.00 0.00 0.00 0.00 0.00 0.00 0.00 0.00 0.00 0.00 0.00 0.00 0.00 0.00 0.00 0.00
0.00 0.00 0.00 0.00 0.00 0.00 0.00 0.00 0.00 0.00 0.00 0.00 0.00 0.00 0.00 0.00 0.00 0.00 0.00 0.00 0.00 0.00 0.00 0.00 0.00 0.00 0.00 0.00 0.00 0.00 0.00 0.00 0.00 0.00 0.00 0.00 0.00 0.00 0.00 0.00 0.00 0.00 0.00 0.00
MSLP
1020.42 1021.86 1023.76 1024.24 1024.13 1023.81 1023.95 1024.34 1025.15 1026.31 1027.29 1028.24 1029.55 1030.80 1031.36 1031.73 1032.00 1032.47 1032.39 1032.00 1031.36 1030.50 1029.32 1028.41 1027.41 1026.82 1025.69 1025.05 1024.72 1024.28 1023.57 1022.85 1021.91 1020.82 1019.93 1019.16 1018.33 1017.48 1016.78 1016.15 1015.48 1014.94 1014.42 1014.00
1021.79 1023.54 1024.23 1024.15 1024.09 1023.90 1024.26 1024.81 1025.81 1026.79 1027.49 1028.49 1030.24 1031.17 1031.63 1031.99 1032.36 1032.78 1032.70 1032.29 1031.65 1030.39 1029.26 1028.38 1027.40 1026.77 1025.83 1025.11 1024.81 1024.24 1023.77 1023.00 1021.85 1020.84 1020.12 1019.32 1018.31 1017.33 1016.34 1015.64 1014.98 1014.28 1013.73 1013.31
1023.18 1024.59 1024.25 1024.22 1024.73 1024.62 1024.75 1025.16 1025.94 1026.91 1027.95 1029.02 1030.23 1031.54 1032.15 1032.42 1032.55 1032.62 1032.50 1032.28 1031.58 1030.57 1029.40 1028.34 1027.46 1026.77 1026.06 1025.38 1025.06 1024.41 1023.86 1023.04 1021.97 1021.13 1020.09 1019.09 1018.21 1017.21 1016.10 1015.25 1014.38 1013.72 1013.18 1012.65
1024.46 1024.78 1024.70 1024.78 1025.07 1025.35 1025.30 1025.64 1025.99 1026.63 1027.97 1029.38 1030.28 1032.14 1032.73 1033.25 1033.03 1032.98 1032.88 1032.21 1031.50 1030.52 1029.69 1028.73 1027.74 1026.87 1026.28 1025.66 1025.19 1024.56 1023.77 1022.96 1022.01 1021.15 1020.24 1019.41 1018.42 1017.12 1016.21 1015.09 1014.21 1013.41 1012.78 1012.26
1025.16 1025.21 1025.17 1025.26 1025.54 1025.64 1025.73 1025.75 1025.98 1026.77 1028.06 1029.32 1030.94 1032.23 1033.52 1033.83 1033.79 1033.34 1033.19 1032.57 1031.75 1030.92 1029.91 1029.03 1028.14 1027.33 1026.53 1025.84 1025.21 1024.55 1023.70 1022.97 1022.14 1021.24 1020.44 1019.59 1018.53 1017.48 1016.26 1015.06 1014.32 1013.43 1012.65 1012.01
1025.30 1025.38 1025.77 1025.98 1025.78 1025.84 1025.97 1026.17 1026.61 1027.43 1028.47 1029.90 1031.11 1032.12 1034.27 1034.35 1034.46 1033.80 1033.39 1032.56 1031.67 1030.70 1030.04 1029.21 1028.34 1027.50 1026.75 1026.11 1025.45 1024.53 1023.54 1022.70 1021.87 1021.01 1020.18 1019.44 1018.53 1017.39 1016.10 1015.10 1014.16 1013.32 1012.52 1011.71
1025.84 1026.18 1026.25 1026.38 1026.40 1026.31 1026.68 1027.22 1027.89 1028.70 1029.42 1030.62 1031.25 1032.40 1033.70 1034.25 1034.39 1034.24 1033.48 1032.72 1031.93 1030.73 1029.94 1029.08 1028.09 1027.22 1026.69 1026.10 1025.33 1024.33 1023.60 1022.72 1021.79 1020.88 1020.08 1019.39 1018.59 1017.51 1016.19 1015.42 1014.37 1013.39 1012.40 1011.47
1026.90 1026.64 1027.14 1027.29 1028.14 1028.59 1028.75 1029.17 1030.12 1030.94 1031.51 1031.88 1031.71 1032.77 1033.29 1033.93 1034.26 1034.20 1033.68 1032.86 1031.94 1031.21 1030.23 1029.42 1028.50 1027.61 1027.06 1026.32 1025.36 1024.51 1023.77 1022.79 1021.75 1020.91 1020.23 1019.41 1018.57 1017.51 1016.43 1015.61 1014.58 1013.56 1012.56 1011.60
1027.40 1027.55 1027.52 1027.93 1028.58 1029.26 1029.41 1030.53 1031.47 1031.93 1032.94 1033.62 1032.86 1033.39 1033.69 1033.90 1034.09 1034.05 1033.78 1033.03 1032.25 1031.20 1030.38 1029.52 1028.73 1027.89 1027.27 1026.53 1025.72 1024.89 1024.01 1022.87 1021.89 1021.06 1020.28 1019.39 1018.63 1017.65 1016.59 1015.55 1014.82 1013.80 1012.77 1011.67
1027.59 1027.91 1028.11 1028.32 1028.82 1029.52 1030.11 1031.63 1032.43 1033.44 1034.94 1035.27 1034.10 1034.18 1034.30 1034.59 1034.55 1034.48 1033.86 1033.14 1032.16 1031.27 1030.46 1029.62 1028.81 1028.02 1027.54 1026.77 1025.98 1025.08 1024.28 1023.22 1022.12 1021.24 1020.53 1019.72 1018.93 1018.00 1016.97 1015.81 1014.97 1014.05 1013.04 1011.84
1027.75 1028.14 1028.86 1028.96 1030.20 1030.95 1031.33 1032.44 1033.94 1035.28 1036.74 1037.38 1036.88 1034.63 1034.42 1034.86 1034.94 1034.96 1034.32 1033.53 1032.54 1031.50 1030.69 1029.83 1029.01 1028.23 1027.67 1026.88 1026.09 1024.99 1024.18 1023.30 1022.29 1021.58 1020.81 1020.05 1019.15 1018.30 1017.41 1016.39 1015.29 1014.33 1013.32 1012.17
1028.30 1028.87 1029.58 1030.26 1030.79 1031.18 1032.03 1033.25 1034.61 1036.29 1038.21 1038.96 1038.60 1035.12 1034.07 1034.67 1035.03 1034.96 1034.35 1033.73 1032.79 1031.90 1030.93 1030.15 1029.33 1028.48 1027.74 1026.92 1026.10 1025.11 1024.29 1023.49 1022.62 1021.84 1021.09 1020.25 1019.47 1018.66 1017.83 1016.84 1015.70 1014.64 1013.51 1012.36
1028.41 1029.28 1029.95 1030.40 1031.27 1031.39 1032.22 1033.44 1034.88 1036.40 1037.81 1038.82 1038.86 1035.34 1034.30 1034.58 1034.65 1034.69 1034.48 1033.73 1032.78 1031.97 1030.98 1030.21 1029.45 1028.63 1027.88 1027.10 1026.30 1025.36 1024.53 1023.75 1022.92 1022.10 1021.37 1020.53 1019.76 1018.95 1018.12 1017.13 1016.15 1015.04 1013.85 1012.75
1028.53 1029.45 1029.75 1030.50 1030.45 1031.18 1032.27 1033.24 1034.62 1035.88 1037.64 1038.37 1037.57 1035.64 1034.45 1034.73 1035.07 1034.76 1034.34 1033.87 1032.99 1032.08 1031.33 1030.50 1029.58 1028.89 1028.10 1027.40 1026.60 1025.70 1024.83 1024.09 1023.28 1022.47 1021.73 1020.96 1020.13 1019.35 1018.53 1017.62 1016.68 1015.65 1014.47 1013.37
1029.22 1029.89 1030.09 1030.26 1030.49 1030.90 1031.39 1032.48 1033.99 1035.25 1035.96 1036.96 1036.05 1035.72 1034.56 1034.84 1035.11 1034.78 1034.43 1033.93 1033.03 1032.14 1031.16 1030.46 1029.72 1029.11 1028.38 1027.64 1026.88 1025.95 1025.15 1024.35 1023.61 1022.83 1022.12 1021.34 1020.56 1019.76 1018.89 1017.98 1017.10 1016.19 1015.15 1014.04
1030.05 1030.63 1030.78 1030.88 1030.88 1031.00 1031.22 1031.69 1032.84 1033.99 1034.73 1035.31 1035.26 1034.62 1034.20 1034.39 1034.51 1034.43 1034.25 1033.93 1033.29 1032.45 1031.54 1030.67 1030.03 1029.40 1028.74 1027.97 1027.24 1026.30 1025.41 1024.67 1023.95 1023.25 1022.52 1021.70 1020.89 1020.04 1019.21 1018.38 1017.45 1016.65 1015.79 1014.80
1030.96 1031.71 1032.15 1032.00 1031.44 1031.14 1030.97 1030.32 1031.52 1032.29 1032.99 1033.46 1034.14 1033.69 1034.02 1034.23 1034.45 1034.44 1034.31 1034.15 1033.50 1032.76 1031.94 1031.00 1030.37 1029.70 1029.08 1028.25 1027.57 1026.63 1025.74 1025.06 1024.33 1023.61 1022.81 1022.01 1021.26 1020.43 1019.60 1018.88 1018.06 1017.08 1016.31 1015.46
1031.43 1032.51 1033.16 1033.03 1032.23 1031.33 1029.53 1029.80 1030.48 1031.30 1031.74 1032.41 1032.89 1033.28 1033.78 1034.28 1034.20 1034.46 1034.43 1034.15 1033.52 1032.78 1031.86 1031.15 1030.56 1029.95 1029.31 1028.55 1027.80 1026.89 1026.08 1025.39 1024.66 1023.88 1023.10 1022.30 1021.63 1020.92 1020.03 1019.36 1018.46 1017.43 1016.71 1016.05
1031.41 1032.68 1034.20 1034.24 1032.99 1030.53 1029.64 1029.90 1030.46 1031.03 1031.16 1031.79 1032.54 1033.08 1033.59 1034.02 1034.14 1034.12 1034.13 1033.82 1033.37 1032.59 1031.86 1031.23 1030.68 1030.11 1029.43 1028.72 1027.96 1027.09 1026.30 1025.69 1024.91 1024.13 1023.39 1022.69 1022.09 1021.39 1020.48 1019.69 1018.75 1017.95 1017.08 1016.67
1032.20 1032.93 1033.90 1034.73 1033.55 1031.20 1029.19 1029.50 1030.02 1030.69 1031.18 1031.48 1032.32 1032.97 1033.49 1033.90 1034.19 1034.42 1033.92 1033.58 1033.02 1032.32 1031.61 1031.05 1030.60 1030.17 1029.51 1028.77 1028.16 1027.35 1026.56 1025.87 1025.13 1024.43 1023.80 1023.14 1022.51 1021.88 1021.04 1020.20 1019.37 1018.74 1017.74 1017.04
1032.32 1033.57 1034.34 1034.18 1033.02 1030.14 1029.19 1029.73 1030.35 1031.08 1031.31 1031.43 1032.23 1032.95 1033.50 1034.06 1034.37 1034.14 1033.80 1033.43 1032.94 1032.22 1031.70 1031.13 1030.60 1030.13 1029.62 1029.04 1028.41 1027.58 1026.87 1026.10 1025.54 1024.83 1024.17 1023.48 1022.90 1022.34 1021.49 1020.73 1019.98 1019.32 1018.58 1017.60
1030.56 1032.08 1033.32 1033.72 1032.48 1030.05 1029.28 1030.56 1030.56 1030.24 1030.86 1031.45 1032.32 1032.93 1033.29 1033.67 1033.90 1033.93 1033.54 1033.44 1032.77 1031.93 1031.42 1030.92 1030.55 1030.19 1029.66 1029.18 1028.65 1027.95 1027.12 1026.55 1025.88 1025.13 1024.53 1023.93 1023.35 1022.76 1022.12 1021.33 1020.19 1019.73 1019.24 1018.40
1029.77 1029.28 1029.72 1030.58 1028.96 1028.27 1028.64 1028.73 1029.18 1029.78 1030.58 1031.63 1032.26 1032.75 1033.04 1033.40 1033.77 1033.71 1033.76 1033.34 1032.56 1031.80 1031.33 1031.01 1030.62 1030.26 1029.88 1029.38 1028.80 1028.17 1027.41 1026.78 1026.10 1025.45 1024.87 1024.37 1023.79 1023.18 1022.64 1022.01 1020.98 1020.05 1019.47 1019.01
1028.32 1028.53 1028.92 1029.01 1028.03 1028.07 1028.54 1029.04 1029.39 1029.86 1030.55 1031.40 1031.99 1032.55 1032.89 1033.34 1033.54 1033.49 1033.46 1033.12 1032.43 1031.87 1031.54 1031.24 1030.83 1030.39 1029.96 1029.52 1028.96 1028.42 1027.62 1026.98 1026.39 1025.87 1025.29 1024.76 1024.31 1023.65 1023.16 1022.52 1021.81 1020.97 1020.19 1019.57
1027.45 1028.19 1028.25 1027.99 1027.57 1028.10 1028.34 1028.72 1029.17 1029.96 1030.66 1031.43 1031.89 1032.27 1032.65 1033.00 1033.31 1033.35 1033.33 1033.04 1032.46 1031.93 1031.59 1031.36 1031.08 1030.59 1030.15 1029.64 1029.15 1028.41 1027.79 1027.12 1026.58 1026.23 1025.72 1025.23 1024.76 1024.39 1023.80 1023.08 1022.55 1021.82 1021.12 1020.45
1025.92 1025.69 1026.17 1025.08 1024.74 1025.61 1026.08 1027.54 1028.80 1029.71 1030.57 1031.22 1031.72 1032.30 1032.65 1032.93 1033.19 1033.44 1033.25 1033.11 1032.51 1031.79 1031.58 1031.42 1031.31 1030.74 1030.23 1029.68 1029.15 1028.53 1028.06 1027.39 1026.88 1026.49 1026.07 1025.64 1025.24 1024.87 1024.38 1023.80 1023.09 1022.44 1021.89 1021.33
Thickness
5690 5672 5650 5648 5645 5641 5637 5633 5622 5603 5593 5577 5554 5536 5534 5526 5506 5489 5474 5462 5449 5435 5431 5428 5434 5435 5443 5445 5443 5442 5441 5439 5440 5444 5444 5444 5445 5445 5444 5442 5441 5439 5439 5440
5678 5655 5654 5652 5648 5645 5634 5623 5607 5593 5589 5570 5544 5533 5530 5515 5503 5481 5459 5442 5427 5426 5426 5428 5434 5434 5440 5442 5439 5437 5433 5432 5434 5434 5431 5430 5431 5433 5433 5432 5430 5429 5429 5429
5665 5658 5655 5655 5635 5631 5629 5621 5609 5601 5575 5560 5545 5532 5520 5505 5487 5470 5451 5429 5421 5419 5425 5430 5434 5434 5436 5436 5431 5430 5425 5424 5424 5421 5421 5420 5418 5417 5419 5419 5419 5418 5419 5420
5658 5655 5651 5646 5635 5626 5625 5612 5607 5595 5578 5566 5548 5527 5500 5477 5473 5459 5440 5425 5421 5423 5425 5428 5431 5432 5432 5430 5427 5425 5422 5418 5415 5411 5410 5407 5406 5408 5407 5408 5409 5411 5411 5413
5659 5649 5642 5639 5635 5626 5620 5611 5609 5592 5576 5556 5538 5519 5484 5466 5462 5458 5435 5423 5421 5420 5424 5424 5426 5427 5427 5426 5425 5421 5418 5412 5408 5405 5403 5401 5401 5400 5401 5404 5403 5405 5407 5408
5655 5651 5641 5636 5629 5627 5615 5615 5601 5576 5564 5559 5532 5521 5460 5456 5454 5445 5430 5423 5423 5425 5424 5424 5424 5425 5425 5423 5420 5420 5418 5414 5411 5407 5404 5400 5398 5398 5401 5402 5403 5403 5404 5406
5651 5641 5635 5628 5625 5621 5595 5594 5591 5594 5572 5562 5520 5510 5473 5463 5448 5433 5425 5423 5421 5427 5426 5426 5427 5430 5426 5423 5422 5422 5418 5415 5413 5410 5407 5402 5398 5396 5399 5396 5397 5398 5399 5401
5638 5645 5625 5622 5611 5598 5588 5575 5567 5587 5564 5537 5522 5520 5493 5466 5444 5424 5419 5422 5426 5423 5425 5424 5425 5427 5424 5422 5422 5419 5416 5415 5414 5411 5406 5402 5398 5396 5395 5392 5391 5390 5391 5391
5634 5632 5627 5617 5602 5591 5596 5557 5554 5548 5526 5502 5510 5496 5482 5462 5444 5431 5422 5423 5421 5424 5424 5423 5423 5424 5422 5420 5418 5416 5414 5414 5413 5410 5407 5403 5398 5396 5393 5390 5384 5382 5380 5381
5633 5631 5619 5616 5606 5589 5579 5561 5560 5521 5496 5528 5505 5489 5474 5457 5445 5428 5420 5421 5423 5424 5423 5423 5423 5424 5420 5418 5417 5415 5412 5412 5411 5409 5404 5400 5395 5390 5385 5381 5374 5369 5367 5368
5632 5625 5620 5610 5580 5573 5563 5554 5518 5505 5490 5460 5444 5500 5460 5452 5434 5416 5411 5414 5419 5422 5422 5422 5423 5423 5420 5419 5417 5418 5415 5413 5411 5407 5403 5398 5392 5385 5376 5368 5360 5354 5351 5352
5622 5602 5601 5596 5581 5573 5562 5547 5522 5493 5487 5436 5412 5463 5476 5454 5431 5418 5412 5413 5416 5420 5421 5420 5421 5422 5421 5421 5419 5418 5415 5413 5410 5406 5401 5395 5388 5379 5367 5355 5348 5343 5340 5340
5621 5604 5604 5607 5581 5571 5566 5544 5512 5489 5462 5438 5427 5481 5467 5450 5435 5419 5408 5413 5418 5419 5421 5421 5421 5422 5422 5421 5418 5417 5415 5412 5409 5405 5399 5393 5386 5377 5363 5351 5344 5339 5335 5333
5619 5595 5609 5596 5605 5570 5563 5548 5524 5506 5450 5435 5458 5478 5476 5456 5434 5420 5413 5412 5417 5420 5419 5420 5423 5422 5421 5420 5418 5416 5414 5411 5408 5403 5398 5392 5386 5375 5361 5350 5341 5335 5330 5327
5612 5616 5606 5594 5586 5579 5576 5561 5527 5489 5504 5470 5496 5466 5470 5455 5434 5421 5412 5414 5418 5420 5423 5422 5423 5421 5421 5419 5417 5416 5414 5411 5408 5402 5397 5392 5385 5373 5362 5353 5343 5332 5327 5323
5598 5597 5601 5599 5584 5577 5570 5563 5540 5525 5514 5490 5482 5478 5473 5457 5439 5426 5413 5416 5416 5417 5420 5423 5422 5421 5419 5418 5416 5415 5414 5412 5407 5402 5398 5393 5386 5376 5366 5359 5348 5337 5328 5324
5598 5583 5573 5600 5573 5572 5574 5568 5552 5543 5524 5517 5500 5495 5474 5460 5447 5428 5413 5413 5414 5416 5417 5421 5420 5420 5418 5418 5416 5414 5414 5411 5407 5403 5400 5395 5388 5379 5370 5362 5354 5346 5337 5329
5589 5573 5544 5547 5571 5588 5599 5570 5564 5553 5539 5516 5511 5498 5481 5462 5449 5431 5419 5414 5415 5416 5419 5420 5419 5419 5418 5417 5415 5414 5413 5411 5409 5406 5402 5397 5390 5382 5374 5367 5362 5356 5348 5341
5587 5565 5522 5555 5564 5594 5582 5564 5553 5551 5555 5522 5511 5501 5482 5464 5450 5445 5430 5420 5418 5419 5422 5422 5420 5420 5419 5418 5416 5415 5415 5412 5411 5409 5404 5399 5392 5385 5380 5375 5371 5364 5357 5349
5578 5562 5555 5503 5566 5599 5610 5569 5558 5553 5548 5524 5514 5503 5485 5465 5448 5435 5427 5419 5421 5422 5425 5424 5422 5421 5420 5420 5418 5416 5417 5414 5413 5411 5405 5399 5394 5388 5385 5380 5376 5367 5364 5359
5551 5526 5539 5526 5533 5584 5585 5561 5555 5566 5566 5526 5512 5500 5486 5470 5453 5446 5434 5426 5424 5427 5424 5424 5423 5423 5422 5420 5419 5418 5417 5417 5413 5410 5406 5401 5397 5392 5389 5384 5379 5374 5368 5366
5602 5561 5535 5509 5526 5612 5566 5552 5563 5559 5538 5528 5513 5501 5490 5477 5467 5454 5443 5429 5424 5432 5428 5427 5425 5424 5424 5421 5419 5418 5419 5416 5414 5412 5408 5404 5401 5396 5392 5389 5389 5382 5375 5371
5600 5606 5592 5589 5605 5585 5572 5580 5565 5552 5540 5526 5514 5504 5494 5484 5471 5458 5445 5433 5428 5433 5431 5428 5427 5426 5425 5422 5421 5419 5420 5418 5416 5414 5411 5407 5404 5401 5396 5392 5392 5390 5386 5379
5605 5592 5588 5598 5594 5585 5573 5568 5560 5553 5542 5529 5519 5507 5497 5486 5474 5464 5450 5440 5434 5433 5430 5427 5427 5427 5427 5424 5423 5421 5422 5421 5418 5415 5414 5411 5407 5405 5400 5396 5394 5393 5391 5386
5606 5591 5590 5591 5588 5584 5576 5568 5561 5552 5541 5531 5521 5511 5501 5489 5479 5468 5455 5447 5439 5435 5431 5428 5426 5427 5428 5427 5425 5425 5424 5424 5421 5418 5416 5414 5411 5406 5403 5401 5396 5394 5392 5388
5603 5613 5612 5632 5618 5609 5597 5578 5564 5553 5542 5532 5522 5511 5503 5492 5482 5470 5460 5451 5445 5441 5432 5429 5426 5427 5428 5430 5429 5428 5425 5426 5424 5420 5418 5417 5414 5409 5406 5403 5400 5398 5394 5390